GW0254 Weather Reports


Display with metric or nautical units.
time (UTC)temp
F
wind
direction
speed
MPH
gust
MPH
rain 1hr
in
rain 24hr
in
rain mn
in
humidity
%
barometer
mb
20260905160111 51 188 0.0 2.0 0.00 0.00 0.00 69 1020.1
20260905154550 50 0 0.0 3.0 0.00 0.00 0.00 70 1020.0
20260905153058 51 0 0.0 1.0 0.00 0.00 0.00 68 1019.9
20260905151548 52 0 0.0 2.0 0.00 0.00 0.00 67 1019.9
20260905150045 53 0 0.0 2.0 0.00 0.00 0.00 63 1019.9
20260905144551 52 0 0.0 3.0 0.00 0.01 0.00 66 1019.9
20260905143049 50 219 0.0 4.0 0.00 0.01 0.00 69 1019.7
20260905141553 48 0 0.0 2.0 0.00 0.01 0.00 73 1019.6
20260905140107 47 0 0.0 2.0 0.00 0.01 0.00 75 1019.6
20260905134552 47 0 0.0 3.0 0.00 0.04 0.00 77 1019.4
20260905133046 46 0 0.0 0.0 0.00 0.04 0.00 77 1019.2
20260905131557 47 0 0.0 0.0 0.00 0.04 0.00 77 1019.1
20260905130049 47 0 0.0 2.0 0.00 0.04 0.00 76 1019.0
20260905124548 47 0 0.0 2.0 0.00 0.04 0.00 75 1019.2
20260905123050 47 0 0.0 3.0 0.00 0.04 0.00 73 1019.3
20260905121545 47 0 0.0 3.0 0.00 0.04 0.00 72 1019.4
20260905120044 47 0 0.0 6.0 0.00 0.04 0.00 71 1019.5
20260905114554 47 0 0.0 6.0 0.00 0.04 0.00 71 1019.5
20260905113052 47 295 0.0 3.0 0.00 0.04 0.00 75 1019.6
20260905111605 47 0 0.0 3.0 0.00 0.04 0.00 74 1019.4
20260905110048 46 293 0.0 2.0 0.00 0.04 0.00 74 1019.6
20260905104558 46 293 0.0 3.0 0.00 0.04 0.00 76 1019.6
20260905103053 46 0 0.0 2.0 0.00 0.04 0.00 77 1019.6
20260905101549 46 0 0.0 2.0 0.00 0.04 0.00 76 1019.7
20260905100046 46 0 0.0 3.0 0.00 0.04 0.00 76 1019.8
20260905094544 46 0 0.0 2.0 0.00 0.04 0.00 76 1019.7
20260905093052 46 278 0.0 0.0 0.00 0.04 0.00 76 1019.6
20260905091545 46 0 0.0 2.0 0.00 0.04 0.00 75 1019.6
20260905090047 47 278 0.0 0.0 0.00 0.04 0.00 75 1019.7
20260905084543 46 0 0.0 3.0 0.00 0.04 0.00 76 1019.7
20260905083052 46 279 0.0 2.0 0.00 0.04 0.00 75 1019.8
20260905081545 46 0 0.0 2.0 0.00 0.04 0.00 75 1019.8
20260905080047 46 278 0.0 3.0 0.00 0.04 0.00 76 1019.9
20260905074551 45 277 0.0 3.0 0.00 0.04 0.00 78 1019.7
20260905073102 45 0 0.0 2.0 0.00 0.04 0.00 78 1019.8
20260905071547 45 277 0.0 2.0 0.00 0.04 0.00 78 1019.7
20260905070048 45 277 0.0 1.0 0.00 0.04 0.00 78 1019.6
20260905064546 45 0 0.0 3.0 0.00 0.04 0.04 78 1019.5
20260905063054 45 0 0.0 2.0 0.00 0.04 0.04 78 1019.5
20260905061548 45 0 0.0 0.0 0.00 0.04 0.04 78 1019.5
20260905060054 45 0 0.0 1.0 0.00 0.04 0.04 78 1019.5
20260905054547 45 0 0.0 1.0 0.00 0.04 0.04 79 1019.5
20260905053115 45 0 0.0 1.0 0.00 0.04 0.04 81 1019.6
20260905051555 45 277 0.0 0.0 0.00 0.04 0.04 80 1019.5
20260905050051 45 0 0.0 1.0 0.00 0.04 0.04 79 1019.3
20260905044548 45 0 0.0 1.0 0.00 0.04 0.04 79 1019.3
20260905043045 45 0 0.0 3.0 0.00 0.04 0.04 78 1019.4
20260905041546 46 0 0.0 2.0 0.00 0.04 0.04 78 1019.2
20260905040046 46 0 0.0 2.0 0.00 0.04 0.04 77 1019.1
20260905034547 46 0 0.0 2.0 0.00 0.04 0.04 77 1018.9
20260905033059 47 0 0.0 2.0 0.00 0.04 0.04 76 1018.7
20260905031550 47 0 0.0 2.0 0.00 0.04 0.04 76 1018.6
20260905030044 48 0 0.0 2.0 0.00 0.04 0.04 76 1018.5
20260905024557 48 0 0.0 2.0 0.00 0.04 0.04 74 1018.6
20260905023052 49 0 0.0 2.0 0.00 0.04 0.04 72 1018.5
20260905021546 50 0 0.0 3.0 0.00 0.04 0.04 70 1018.3
20260905020052 51 0 0.0 2.0 0.00 0.04 0.04 68 1018.3
20260905014559 51 0 0.0 2.0 0.00 0.04 0.04 67 1018.4
20260905013049 53 0 0.0 3.0 0.00 0.04 0.04 65 1018.3
20260905011549 53 0 0.0 3.0 0.00 0.04 0.04 66 1018.3
20260905010045 53 257 0.0 3.0 0.00 0.04 0.04 66 1018.2
20260905004554 53 0 0.0 6.0 0.00 0.04 0.04 66 1018.2
20260905003051 54 0 0.0 3.0 0.00 0.04 0.04 66 1018.0
20260905001546 53 0 0.0 5.0 0.00 0.04 0.04 68 1018.1
20260905000048 53 0 0.0 5.0 0.00 0.04 0.04 67 1018.1
20260904234558 54 284 1.0 8.0 0.00 0.04 0.04 65 1018.1
20260904233051 54 0 1.0 7.0 0.00 0.04 0.04 66 1017.8
20260904231555 54 0 2.0 14.0 0.00 0.04 0.04 67 1017.9
20260904230046 54 0 1.0 7.0 0.00 0.04 0.04 65 1017.7
20260904224603 55 0 0.0 7.0 0.00 0.04 0.04 64 1017.8
20260904223052 55 198 1.0 6.0 0.00 0.04 0.04 65 1017.9
20260904221549 55 0 1.0 7.0 0.00 0.04 0.04 66 1017.9
20260904220059 54 0 0.0 4.0 0.00 0.04 0.04 66 1017.7
20260904214549 55 0 0.0 3.0 0.00 0.04 0.04 65 1017.7
20260904213051 54 0 0.0 6.0 0.00 0.04 0.04 68 1017.8
20260904211546 54 0 0.0 3.0 0.00 0.04 0.04 66 1017.9
20260904210059 55 177 1.0 6.0 0.00 0.04 0.04 66 1017.8
20260904204547 53 0 0.0 3.0 0.00 0.04 0.04 71 1017.7
20260904203047 52 192 0.0 6.0 0.00 0.04 0.04 72 1017.7
20260904201558 51 0 1.0 9.0 0.00 0.04 0.04 73 1017.8
20260904200058 51 190 1.0 7.0 0.00 0.04 0.04 74 1017.7
20260904194604 50 242 1.0 8.0 0.00 0.04 0.04 74 1017.9
20260904193046 50 276 2.0 11.0 0.00 0.04 0.04 75 1018.0
20260904191547 50 175 0.0 11.0 0.00 0.04 0.04 76 1018.0
20260904190051 49 0 1.0 13.0 0.00 0.04 0.04 79 1018.0
20260904184546 49 0 0.0 7.0 0.00 0.04 0.04 82 1017.8
20260904183057 49 0 0.0 0.0 0.00 0.04 0.04 83 1017.7
20260904181556 49 0 0.0 3.0 0.00 0.04 0.04 85 1017.7
20260904180047 48 265 0.0 4.0 0.00 0.04 0.04 85 1017.6
20260904174556 48 150 0.0 3.0 0.00 0.04 0.04 84 1017.5
20260904173120 48 0 1.0 5.0 0.00 0.04 0.04 84 1017.3
20260904171607 49 0 0.0 2.0 0.00 0.04 0.04 84 1017.2
20260904170047 48 0 0.0 13.0 0.00 0.04 0.04 82 1017.1
20260904164553 48 0 1.0 6.0 0.00 0.04 0.04 83 1016.7
20260904163054 48 263 0.0 7.0 0.00 0.04 0.04 85 1016.5
20260904161550 48 0 0.0 9.0 0.00 0.04 0.04 85 1016.5